Weather History for Sevilla, Spain

Change the Weather History Date:

Tuesday, May 13, 2014

  Actual Average Record
Temperature  
Mean Temperature 78 °F -  
Max Temperature 96 °F 83 °F 98 °F (2012)
Min Temperature 61 °F 59 °F 50 °F (2002)
Cooling Degree Days 14    
Growing Degree Days 28 (Base 50)    
Moisture  
Dew Point 48 °F    
Average Humidity 40    
Maximum Humidity 65    
Minimum Humidity 4    
Precipitation  
Precipitation 0.00 in - - ()
Sea Level Pressure  
Sea Level Pressure 29.98 in    
Wind  
Wind Speed 5 mph ()    
Max Wind Speed 16 mph    
Max Gust Speed 18 mph    
Visibility 16.1 miles    
Events      
Averages and records for this station are not official NWS values.
T = Trace of Precipitation, MM = Missing Value Source: Averaged Metar Reports

Daily Weather History Graph

Daily Weather History Graph

Search for Another Location

Airport:

Trip Planner

Search our weather history database for the weather conditions in past years. The results will help you decide how hot, cold, wet, or windy it might be!

Date:

Astronomy

May. 13, 2014 Rise Set
Actual Time 7:16 AM CEST 9:23 PM CEST
Civil Twilight 6:47 AM CEST 9:52 PM CEST
Nautical Twilight 6:12 AM CEST 10:28 PM CEST
Astronomical Twilight 5:33 AM CEST 11:07 PM CEST
Moon 8:12 PM CEST (5/13) 6:21 AM CEST (5/13)
Length of Visible Light 15h 05m
Length of Day
14h 07m
Waxing Gibbous, 98% of the Moon is Illuminated
May 13
Waxing Gibbous
May 14
Full
May 21
Last Quarter
May 28
New
Jun 5
First Quarter

Hourly Weather History & Observations

Time (CEST) Temp. Heat Index Dew Point Humidity Pressure Visibility Wind Dir Wind Speed Gust Speed Precip Events Conditions
12:00 AM 73.4 °F - 53.6 °F 50% 29.95 in - SSW 4.6 mph - N/A   Clear
12:30 AM 71.6 °F - 55.4 °F 57% 29.95 in - SSW 5.8 mph - N/A   Clear
1:00 AM 71.6 °F - 55.4 °F 57% 29.95 in - SSW 6.9 mph - N/A   Clear
2:00 AM 69 °F - 56 °F 55% 29.95 in 16 mi East 1.2 mph - -  
4:30 AM 64.4 °F - 51.8 °F 64% 29.92 in - Variable 1.2 mph - N/A   Clear
5:00 AM 65 °F - 48 °F 44% 29.94 in - NNE 3.5 mph - -  
5:00 AM 66.2 °F - 48.2 °F 52% 29.92 in - NE 3.5 mph - N/A   Clear
5:30 AM 68.0 °F - 48.2 °F 49% 29.92 in - NNE 4.6 mph - N/A   Clear
6:00 AM 64.4 °F - 48.2 °F 56% 29.92 in - Variable 2.3 mph - N/A   Clear
6:30 AM 62.6 °F - 48.2 °F 59% 29.95 in - Variable 1.2 mph - N/A   Clear
7:00 AM 60.8 °F - 48.2 °F 63% 29.95 in - Calm Calm - N/A   Clear
7:30 AM 62.6 °F - 50.0 °F 63% 29.95 in - NNE 4.6 mph - N/A   Clear
8:00 AM 65 °F - 50 °F 48% 29.99 in 16 mi North 3.5 mph - -   Clear
8:00 AM 64.4 °F - 50.0 °F 59% 29.98 in - NNE 3.5 mph - N/A   Clear
8:30 AM 66.2 °F - 51.8 °F 60% 29.98 in - Variable 1.2 mph - N/A   Clear
9:00 AM 68.0 °F - 50.0 °F 52% 29.98 in - Variable 2.3 mph - N/A   Clear
9:30 AM 69.8 °F - 50.0 °F 49% 30.01 in - NNE 4.6 mph - N/A   Clear
10:00 AM 71.6 °F - 50.0 °F 46% 30.01 in - North 5.8 mph - N/A   Clear
10:30 AM 75.2 °F - 46.4 °F 36% 30.01 in - North 6.9 mph - N/A   Clear
11:00 AM 79 °F - 47 °F 22% 30.01 in 19 mi North 9.2 mph - -   Clear
11:00 AM 77.0 °F - 46.4 °F 34% 30.01 in - NNE 8.1 mph - N/A   Clear
11:30 AM 78.8 °F - 46.4 °F 32% 30.01 in - NNE 8.1 mph - N/A   Clear
12:00 PM 80.6 °F - 44.6 °F 28% 30.01 in - NNE 6.9 mph - N/A   Clear
12:30 PM 82.4 °F - 41.0 °F 23% 30.01 in - NE 8.1 mph - N/A   Clear
1:00 PM 86.0 °F - 42.8 °F 22% 30.01 in - NNE 6.9 mph - N/A   Clear
1:30 PM 86.0 °F - 42.8 °F 22% 29.98 in - North 6.9 mph - N/A   Clear
2:00 PM 89 °F - 40 °F 10% 29.99 in 19 mi North 8.1 mph - -   Clear
2:00 PM 87.8 °F - 42.8 °F 21% 29.98 in - North 4.6 mph - N/A   Clear
3:00 PM 91.4 °F - 35.6 °F 14% 29.98 in - South 2.3 mph - N/A   Clear
3:30 PM 91.4 °F - 33.8 °F 13% 29.98 in - North 3.5 mph 15.0 mph N/A   Clear
5:00 PM 95 °F - 30 °F 4% 29.96 in 19 mi WNW 4.6 mph - -  
6:00 PM 95.0 °F - 33.8 °F 12% 29.95 in - NW 2.3 mph - N/A   Clear
6:30 PM 95.0 °F - 32.0 °F 11% 29.95 in - WSW 5.8 mph - N/A   Clear
7:30 PM 91.4 °F - 46.4 °F 21% 29.95 in - SW 5.8 mph 18.4 mph N/A   Clear
8:00 PM 89 °F - 52 °F 19% 29.94 in 12 mi SW 16.1 mph - -   Clear
8:00 PM 87.8 °F - 50.0 °F 27% 29.95 in - SW 15.0 mph - N/A   Clear
8:30 PM 84.2 °F 82.8 °F 53.6 °F 35% 29.95 in - SW 15.0 mph - N/A   Clear
9:00 PM 82.4 °F 81.4 °F 53.6 °F 37% 29.98 in - SW 15.0 mph - N/A   Clear
9:30 PM 80.6 °F 80.8 °F 57.2 °F 45% 29.98 in - SW 16.1 mph - N/A   Clear
10:00 PM 78.8 °F - 57.2 °F 47% 30.01 in - SW 10.4 mph - N/A   Clear
10:30 PM 77.0 °F - 60.8 °F 57% 30.01 in - SW 11.5 mph - N/A   Clear
11:00 PM 75 °F - 61 °F 52% 30.04 in 12 mi SW 10.4 mph - -  
11:00 PM 75.2 °F - 60.8 °F 61% 30.04 in - SW 10.4 mph - N/A   Clear
11:30 PM 73.4 °F - 60.8 °F 65% 30.04 in - SW 9.2 mph - N/A   Clear